| time (UTC) | temp C | wind direction | speed KPH | gust KPH | rain 1hr cm | rain 24hr cm | rain mn cm | humidity % | barometer mb |
| 20260906063704 | 19 | 113 | 1.6 | 4.8 | 0.00 | 0.46 | 0.00 | 72 | 1020.1 |
| 20260906062803 | 20 | 0.0 | 4.8 | 0.00 | 0.46 | 0.00 | 71 | 1019.6 | |
| 20260906055200 | 17 | 135 | 1.6 | 3.2 | 0.00 | 0.46 | 0.00 | 82 | 1019.4 |
| 20260906054316 | 17 | 0.0 | 3.2 | 0.00 | 0.46 | 0.00 | 84 | 1019.5 | |
| 20260906053355 | 16 | 0.0 | 3.2 | 0.00 | 0.46 | 0.00 | 86 | 1019.5 | |
| 20260906052456 | 16 | 0.0 | 1.6 | 0.00 | 0.46 | 0.00 | 88 | 1019.2 | |
| 20260906051614 | 15 | 0.0 | 3.2 | 0.00 | 0.46 | 0.00 | 90 | 1019.3 | |
| 20260906050652 | 15 | 0.0 | 0.0 | 0.00 | 0.46 | 0.00 | 90 | 1019.5 | |
| 20260906044851 | 14 | 0.0 | 3.2 | 0.00 | 0.46 | 0.00 | 91 | 1019.1 | |
| 20260906043051 | 14 | 0.0 | 0.0 | 0.00 | 0.46 | 0.00 | 90 | 1018.9 | |
| 20260906042149 | 14 | 0.0 | 0.0 | 0.00 | 0.46 | 0.00 | 90 | 1019.1 | |
| 20260906041248 | 14 | 0.0 | 0.0 | 0.00 | 0.46 | 0.00 | 90 | 1019.1 | |
| 20260906040342 | 14 | 0.0 | 0.0 | 0.00 | 0.46 | 0.00 | 90 | 1018.9 | |
| 20260906035441 | 14 | 0.0 | 1.6 | 0.00 | 0.46 | 0.00 | 90 | 1018.9 | |
| 20260906034540 | 13 | 0.0 | 1.6 | 0.00 | 0.46 | 0.00 | 90 | 1019.0 | |
| 20260906033700 | 13 | 0.0 | 0.0 | 0.00 | 0.46 | 0.00 | 90 | 1018.9 | |
| 20260906032739 | 13 | 0.0 | 1.6 | 0.00 | 0.46 | 0.00 | 90 | 1018.8 | |
| 20260906031920 | 13 | 0.0 | 0.0 | 0.00 | 0.46 | 0.00 | 89 | 1018.6 | |
| 20260906030038 | 13 | 0.0 | 0.0 | 0.00 | 0.46 | 0.00 | 89 | 1018.7 | |
| 20260906025138 | 14 | 0.0 | 0.0 | 0.00 | 0.46 | 0.00 | 89 | 1018.5 | |
| 20260906024236 | 14 | 0.0 | 0.0 | 0.00 | 0.46 | 0.00 | 89 | 1018.4 | |
| 20260906023330 | 14 | 0.0 | 0.0 | 0.00 | 0.46 | 0.00 | 89 | 1018.3 | |
| 20260906022429 | 14 | 0.0 | 0.0 | 0.00 | 0.46 | 0.00 | 89 | 1018.5 | |
| 20260906021528 | 14 | 0.0 | 0.0 | 0.00 | 0.46 | 0.00 | 88 | 1018.4 | |
| 20260906020627 | 14 | 0.0 | 0.0 | 0.00 | 0.46 | 0.00 | 88 | 1018.4 | |
| 20260906015729 | 15 | 0.0 | 0.0 | 0.00 | 0.46 | 0.00 | 88 | 1018.6 | |
| 20260906014826 | 15 | 0.0 | 0.0 | 0.00 | 0.46 | 0.00 | 88 | 1018.5 | |
| 20260906013025 | 15 | 0.0 | 0.0 | 0.00 | 0.46 | 0.00 | 88 | 1018.5 | |
| 20260906012126 | 15 | 0.0 | 1.6 | 0.00 | 0.46 | 0.00 | 88 | 1018.5 | |
| 20260906011224 | 15 | 0.0 | 0.0 | 0.00 | 0.46 | 0.00 | 88 | 1018.6 | |
| 20260906010323 | 15 | 0.0 | 0.0 | 0.00 | 0.46 | 0.00 | 88 | 1018.7 | |
| 20260906005313 | 16 | 0.0 | 0.0 | 0.00 | 0.46 | 0.00 | 88 | 1018.6 | |
| 20260906004413 | 16 | 0.0 | 0.0 | 0.00 | 0.46 | 0.00 | 89 | 1018.5 | |
| 20260906003532 | 16 | 0.0 | 1.6 | 0.00 | 0.46 | 0.00 | 89 | 1018.6 | |
| 20260906002613 | 16 | 0.0 | 0.0 | 0.00 | 0.46 | 0.00 | 89 | 1018.6 | |
| 20260906001711 | 16 | 0.0 | 0.0 | 0.00 | 0.46 | 0.00 | 89 | 1018.7 | |
| 20260906000810 | 16 | 0.0 | 0.0 | 0.00 | 0.46 | 0.00 | 89 | 1018.9 | |
| 20260905235931 | 16 | 0.0 | 1.6 | 0.00 | 0.46 | 0.00 | 89 | 1018.7 | |
| 20260905234108 | 16 | 0.0 | 0.0 | 0.00 | 0.46 | 0.00 | 89 | 1018.7 | |
| 20260905233207 | 16 | 0.0 | 1.6 | 0.00 | 0.46 | 0.00 | 89 | 1018.7 | |
| 20260905232308 | 16 | 0.0 | 1.6 | 0.00 | 0.46 | 0.00 | 89 | 1018.7 | |
| 20260905231408 | 16 | 0.0 | 0.0 | 0.00 | 0.46 | 0.00 | 89 | 1018.6 | |
| 20260905230507 | 16 | 0.0 | 0.0 | 0.00 | 0.46 | 0.00 | 89 | 1018.6 | |
| 20260905225604 | 16 | 0.0 | 0.0 | 0.00 | 0.46 | 0.00 | 89 | 1018.7 | |
| 20260905224704 | 16 | 0.0 | 0.0 | 0.00 | 0.46 | 0.00 | 89 | 1018.7 | |
| 20260905223805 | 16 | 0.0 | 1.6 | 0.00 | 0.46 | 0.00 | 89 | 1018.7 | |
| 20260905222902 | 16 | 0.0 | 0.0 | 0.00 | 0.46 | 0.00 | 88 | 1018.5 | |
| 20260905221101 | 16 | 0.0 | 3.2 | 0.00 | 0.46 | 0.00 | 88 | 1018.6 | |
| 20260905220200 | 16 | 0.0 | 0.0 | 0.00 | 0.46 | 0.00 | 88 | 1018.5 | |
| 20260905215259 | 16 | 0.0 | 1.6 | 0.00 | 0.46 | 0.00 | 88 | 1018.5 | |
| 20260905214359 | 16 | 0.0 | 0.0 | 0.00 | 0.46 | 0.00 | 88 | 1018.5 | |
| 20260905213458 | 16 | 0.0 | 0.0 | 0.00 | 0.46 | 0.00 | 88 | 1018.5 | |
| 20260905212618 | 16 | 0.0 | 0.0 | 0.00 | 0.46 | 0.00 | 88 | 1018.3 | |
| 20260905211657 | 16 | 0.0 | 0.0 | 0.00 | 0.46 | 0.00 | 87 | 1017.9 | |
| 20260905210756 | 16 | 0.0 | 0.0 | 0.03 | 0.46 | 0.00 | 87 | 1017.8 | |
| 20260905205855 | 17 | 0.0 | 1.6 | 0.03 | 0.46 | 0.46 | 87 | 1017.9 | |
| 20260905204056 | 17 | 0.0 | 0.0 | 0.10 | 0.46 | 0.46 | 86 | 1017.4 | |
| 20260905203155 | 17 | 0.0 | 0.0 | 0.18 | 0.46 | 0.46 | 86 | 1017.8 | |
| 20260905202253 | 17 | 0.0 | 0.0 | 0.18 | 0.46 | 0.46 | 85 | 1018.0 | |
| 20260905201354 | 17 | 0.0 | 0.0 | 0.18 | 0.46 | 0.46 | 85 | 1017.6 | |
| 20260905200451 | 17 | 0.0 | 0.0 | 0.15 | 0.43 | 0.43 | 85 | 1017.6 | |
| 20260905195551 | 17 | 0.0 | 0.0 | 0.15 | 0.43 | 0.43 | 84 | 1018.0 | |
| 20260905194650 | 17 | 0.0 | 3.2 | 0.18 | 0.36 | 0.36 | 84 | 1018.2 | |
| 20260905193749 | 17 | 0.0 | 1.6 | 0.13 | 0.28 | 0.28 | 83 | 1018.7 | |
| 20260905192849 | 17 | 0.0 | 1.6 | 0.13 | 0.28 | 0.28 | 81 | 1017.3 | |
| 20260905191048 | 17 | 0.0 | 0.0 | 0.28 | 0.28 | 0.28 | 79 | 1017.3 | |
| 20260905190207 | 18 | 0.0 | 0.0 | 0.28 | 0.28 | 0.28 | 78 | 1017.1 | |
| 20260905185247 | 18 | 0.0 | 0.0 | 0.28 | 0.28 | 0.28 | 76 | 1017.0 | |
| 20260905184346 | 18 | 0.0 | 3.2 | 0.18 | 0.18 | 0.18 | 73 | 1017.2 | |
| 20260905183507 | 19 | 0.0 | 3.2 | 0.15 | 0.15 | 0.15 | 70 | 1017.0 | |
| 20260905182544 | 20 | 0.0 | 1.6 | 0.15 | 0.15 | 0.15 | 64 | 1017.3 | |
| 20260905181644 | 21 | 113 | 3.2 | 8.0 | 0.00 | 0.00 | 0.00 | 55 | 1018.0 |
| 20260905180743 | 22 | 135 | 3.2 | 6.4 | 0.00 | 0.00 | 0.00 | 51 | 1017.8 |
| 20260905175903 | 22 | 149 | 1.6 | 9.7 | 0.00 | 0.00 | 0.00 | 48 | 1017.6 |
| 20260905174043 | 22 | 135 | 3.2 | 6.4 | 0.00 | 0.00 | 0.00 | 46 | 1016.9 |
| 20260905173201 | 23 | 0.0 | 3.2 | 0.00 | 0.00 | 0.00 | 43 | 1016.5 | |
| 20260905172240 | 23 | 113 | 3.2 | 4.8 | 0.00 | 0.00 | 0.00 | 42 | 1016.3 |
| 20260905171339 | 23 | 135 | 3.2 | 6.4 | 0.00 | 0.00 | 0.00 | 38 | 1016.1 |
| 20260905170519 | 24 | 135 | 3.2 | 6.4 | 0.00 | 0.00 | 0.00 | 34 | 1016.1 |
| 20260905165539 | 25 | 135 | 3.2 | 14.5 | 0.00 | 0.00 | 0.00 | 34 | 1015.8 |
| 20260905164657 | 25 | 135 | 3.2 | 8.0 | 0.00 | 0.00 | 0.00 | 35 | 1015.5 |
| 20260905163818 | 25 | 135 | 4.8 | 11.3 | 0.00 | 0.00 | 0.00 | 36 | 1015.4 |
| 20260905162836 | 27 | 135 | 4.8 | 11.3 | 0.00 | 0.00 | 0.00 | 34 | 1014.8 |
| 20260905161036 | 29 | 135 | 4.8 | 11.3 | 0.00 | 0.00 | 0.00 | 28 | 1014.3 |
| 20260905160134 | 31 | 0.0 | 3.2 | 0.00 | 0.00 | 0.00 | 21 | 1013.5 | |
| 20260905155233 | 31 | 0.0 | 3.2 | 0.00 | 0.00 | 0.00 | 19 | 1013.1 | |
| 20260905154333 | 31 | 0.0 | 1.6 | 0.00 | 0.00 | 0.00 | 18 | 1013.0 | |
| 20260905153402 | 31 | 0.0 | 3.2 | 0.00 | 0.00 | 0.00 | 16 | 1012.9 | |
| 20260905152501 | 32 | 0.0 | 3.2 | 0.00 | 0.00 | 0.00 | 15 | 1012.6 | |
| 20260905151600 | 32 | 0.0 | 3.2 | 0.00 | 0.00 | 0.00 | 13 | 1012.9 | |
| 20260905150720 | 32 | 135 | 1.6 | 3.2 | 0.00 | 0.00 | 0.00 | 11 | 1012.7 |
| 20260905145759 | 33 | 135 | 3.2 | 3.2 | 0.00 | 0.00 | 0.00 | 11 | 1012.8 |
| 20260905144858 | 33 | 135 | 0.0 | 3.2 | 0.00 | 0.00 | 0.00 | 10 | 1013.0 |
| 20260905143057 | 33 | 113 | 3.2 | 9.7 | 0.00 | 0.00 | 0.00 | 1013.1 | |
| 20260905142156 | 33 | 158 | 3.2 | 6.4 | 0.00 | 0.00 | 0.00 | 1013.1 | |
| 20260905141255 | 33 | 158 | 3.2 | 6.4 | 0.00 | 0.00 | 0.00 | 1013.0 | |
| 20260905140355 | 34 | 135 | 1.6 | 4.8 | 0.00 | 0.00 | 0.00 | 1013.1 | |
| 20260905135514 | 35 | 0.0 | 3.2 | 0.00 | 0.00 | 0.00 | 1013.0 | ||
| 20260905134553 | 36 | 1.6 | 6.4 | 0.00 | 0.00 | 0.00 | 1013.1 | ||
| 20260905133653 | 36 | 113 | 3.2 | 8.0 | 0.00 | 0.00 | 0.00 | 1013.2 | |
| 20260905132752 | 36 | 0.0 | 3.2 | 0.00 | 0.00 | 0.00 | 1013.4 | ||
| 20260905131851 | 36 | 135 | 1.6 | 8.0 | 0.00 | 0.00 | 0.00 | 1013.4 | |
| 20260905130020 | 36 | 135 | 1.6 | 3.2 | 0.00 | 0.00 | 0.00 | 1013.4 | |
| 20260905125121 | 36 | 135 | 3.2 | 12.9 | 0.00 | 0.00 | 0.00 | 1013.4 | |
| 20260905124219 | 36 | 135 | 1.6 | 3.2 | 0.00 | 0.00 | 0.00 | 1013.6 | |
| 20260905123320 | 36 | 135 | 3.2 | 4.8 | 0.00 | 0.00 | 0.00 | 1013.5 | |
| 20260905122418 | 36 | 158 | 6.4 | 11.3 | 0.00 | 0.00 | 0.00 | 1013.5 | |
| 20260905121517 | 36 | 0.0 | 1.6 | 0.00 | 0.00 | 0.00 | 1013.6 | ||
| 20260905120618 | 36 | 0.0 | 3.2 | 0.00 | 0.00 | 0.00 | 1013.7 | ||
| 20260905115736 | 36 | 0.0 | 4.8 | 0.00 | 0.00 | 0.00 | 1013.8 | ||
| 20260905114835 | 36 | 135 | 0.0 | 6.4 | 0.00 | 0.00 | 0.00 | 1014.0 | |
| 20260905113914 | 36 | 135 | 1.6 | 4.8 | 0.00 | 0.00 | 0.00 | 1014.1 | |
| 20260905112133 | 36 | 158 | 1.6 | 3.2 | 0.00 | 0.00 | 0.00 | 1014.0 | |
| 20260905111212 | 36 | 158 | 3.2 | 8.0 | 0.00 | 0.00 | 0.00 | 1014.0 | |
| 20260905110313 | 36 | 113 | 1.6 | 6.4 | 0.00 | 0.00 | 0.00 | 1014.2 | |
| 20260905105411 | 37 | 158 | 3.2 | 6.4 | 0.00 | 0.00 | 0.00 | 1014.2 | |
| 20260905104511 | 36 | 0.0 | 3.2 | 0.00 | 0.00 | 0.00 | 1014.4 | ||
| 20260905103611 | 36 | 1.6 | 3.2 | 0.00 | 0.00 | 0.00 | 1014.5 | ||
| 20260905102710 | 36 | 0.0 | 3.2 | 0.00 | 0.00 | 0.00 | 1014.5 | ||
| 20260905101810 | 36 | 158 | 3.2 | 6.4 | 0.00 | 0.00 | 0.00 | 1014.7 | |
| 20260905100909 | 36 | 135 | 1.6 | 4.8 | 0.00 | 0.00 | 0.00 | 1014.7 | |
| 20260905095107 | 35 | 135 | 3.2 | 9.7 | 0.00 | 0.00 | 0.00 | 1014.8 | |
| 20260905094206 | 35 | 135 | 1.6 | 3.2 | 0.00 | 0.00 | 0.00 | 1014.9 | |
| 20260905093305 | 35 | 158 | 3.2 | 6.4 | 0.00 | 0.00 | 0.00 | 1015.0 | |
| 20260905092424 | 35 | 3.2 | 8.0 | 0.00 | 0.00 | 0.00 | 1015.1 | ||
| 20260905091524 | 35 | 135 | 3.2 | 6.4 | 0.00 | 0.00 | 0.00 | 11 | 1015.1 |
| 20260905090603 | 34 | 135 | 3.2 | 9.7 | 0.00 | 0.00 | 0.00 | 11 | 1015.2 |
| 20260905085723 | 34 | 0.0 | 4.8 | 0.00 | 0.00 | 0.00 | 14 | 1015.4 | |
| 20260905084802 | 33 | 137 | 3.2 | 9.7 | 0.00 | 0.00 | 0.00 | 14 | 1015.5 |
| 20260905083922 | 32 | 135 | 1.6 | 3.2 | 0.00 | 0.00 | 0.00 | 19 | 1015.9 |
| 20260905082100 | 32 | 0.0 | 3.2 | 0.00 | 0.00 | 0.00 | 20 | 1015.9 | |
| 20260905081220 | 31 | 135 | 1.6 | 4.8 | 0.00 | 0.00 | 0.00 | 23 | 1015.8 |
| 20260905080402 | 30 | 0.0 | 3.2 | 0.00 | 0.00 | 0.00 | 26 | 1015.9 | |
| 20260905075358 | 29 | 1.6 | 4.8 | 0.00 | 0.00 | 0.00 | 28 | 1016.0 | |
| 20260905074519 | 28 | 0.0 | 3.2 | 0.00 | 0.00 | 0.00 | 33 | 1016.0 | |
| 20260905073617 | 27 | 158 | 1.6 | 3.2 | 0.00 | 0.00 | 0.00 | 34 | 1016.1 |
| 20260905072656 | 27 | 3.2 | 6.4 | 0.00 | 0.00 | 0.00 | 36 | 1016.1 | |
| 20260905071755 | 27 | 135 | 4.8 | 9.7 | 0.00 | 0.00 | 0.00 | 37 | 1016.1 |
| 20260905070856 | 27 | 158 | 1.6 | 8.0 | 0.00 | 0.00 | 0.00 | 38 | 1016.1 |
| 20260905065053 | 26 | 0.0 | 3.2 | 0.00 | 0.00 | 0.00 | 42 | 1016.0 |